Retour au catalogue

COSMOS 2499 DEB

ActifPO
NORAD 60616·DEBRIS·🇷🇺 Russia

Lancé May 23, 2014 depuis Plesetsk Cosmodrome

Loading…

Prochains Passages (prochaines 24 heures)

TLE

VieillissantSource: Space-Track

Époque: Sep 3, 2026, 07:28 UTC

1 60616U 14028CC  26246.31150221 -.00002617  00000-0 -62858-2 0  9998
2 60616  81.9790 104.7593 0216614  37.0550 324.5305 13.14662813158184

Suivez COSMOS 2499 DEB en temps réel avec AllMySat

Download on the App Store